Location: Doschendorf
(50.0069°N, 11.0602°E)
Time: 20:25:35
(UTC+00:00)

Daily predictions for brighter satellites

Satellite Brightness Start Highest point End
(mag) Time Altitude Azimuth Time Altitude Azimuth Time Altitude Azimuth
NOSS 7 (D) 4.0 16:02:24 10° SW 16:05:19 75° NW 16:08:04 10° NE
IRS-1C Rocket 4.1 16:00:20 10° SSE 16:05:32 62° ENE 16:10:45 10° N
Cosmos 773 Rocket 4.2 16:02:25 10° S 16:07:23 51° ESE 16:12:27 10° NNE
Feng Yun 1-1 Rocket 4.3 16:03:38 10° SSE 16:09:06 61° ENE 16:14:29 10° N
ALOS 3.3 16:07:23 10° S 16:11:56 52° W 16:16:31 10° NNW
Cosmos 2369 Rocket 4.1 16:10:19 10° W 16:14:38 22° NW 16:18:58 10° NNE
Cosmos 2219 3.5 16:09:14 10° NNW 16:14:52 76° WSW 16:20:28 10° SSE
Meteor 2-10 Rocket 3.8 16:12:11 10° SSW 16:17:10 69° WNW 16:22:17 10° N
SMAP 3.1 16:13:30 10° SSE 16:18:06 63° ENE 16:22:43 10° N
Helios 1A Rocket 4.4 16:14:27 10° S 16:18:25 43° W 16:22:25 10° NNW
Cosmos 1805 Rocket 3.7 16:14:57 10° N 16:19:14 53° ENE 16:23:31 10° SSE
Cosmos 1743 Rocket 4.0 16:15:10 10° NNW 16:19:30 66° W 16:23:51 10° S
Okean-O 3.0 16:17:09 10° SE 16:21:19 42° ENE 16:25:30 10° N
Cosmos 1867 3.8 16:18:28 10° SW 16:23:56 75° NW 16:29:26 10° NE
Cosmos 1455 4.1 16:20:48 10° SW 16:24:10 31° WNW 16:27:33 10° N
CORIOLIS 4.2 16:19:02 10° SSE 16:24:23 64° ENE 16:29:46 10° N
Cosmos 2056 Rocket 4.5 16:20:33 10° N 16:24:45 25° NE 16:28:57 10° ESE
CZ-4B R/B 3.7 16:22:49 10° N 16:25:37 25° WNW 16:28:28 10° WSW
Cosmos 2233 Rocket 4.2 16:21:48 10° NNW 16:28:09 80° W 16:34:25 10° S
Cosmos 1980 Rocket 3.7 16:25:53 10° SE 16:29:12 16° E 16:31:36 13° ENE
Cosmos 2297 Rocket 2.3 16:25:38 10° NNW 16:31:19 82° WSW 16:36:58 10° SSE
Cosmos 2227 Rocket 2.3 16:25:52 10° NNW 16:31:35 87° WSW 16:37:14 10° SSE
USA 215 3.6 16:27:25 11° E 16:33:29 50° N 16:39:44 10° WNW
Cosmos 1538 Rocket 4.1 16:29:02 10° S 16:34:15 66° ESE 16:39:34 10° NNE
Cosmos 1689 Rocket 4.4 16:34:37 10° N 16:37:12 25° WNW 16:39:47 10° SW
Cosmos 1869 3.3 16:33:19 10° S 16:37:12 59° E 16:41:06 10° NNE
Cosmos 1447 Rocket 4.5 16:31:56 10° S 16:38:11 82° E 16:44:32 10° N
Cosmos 1943 Rocket 4.4 16:34:55 10° WNW 16:38:24 16° NNW 16:41:55 10° N
PSLV R/B 4.1 16:35:25 10° NNE 16:39:39 79° WNW 16:43:52 10° SSW
Meteor 2-20 4.4 16:36:04 10° S 16:42:09 72° E 16:48:18 10° NNE
USA 229 DEB 3.7 16:36:08 10° SSW 16:42:40 70° SE 16:49:13 11° NE
USA 229 3.7 16:36:15 10° SSW 16:42:47 70° SE 16:49:18 12° NE
Cosmos 1356 Rocket 3.5 16:40:09 10° S 16:44:14 58° E 16:48:26 10° NNE
Okean O Rocket 4.0 16:42:12 10° SSW 16:45:56 27° W 16:49:40 10° NW
NOSS 3-1 (C) 3.4 16:41:34 10° SSW 16:47:06 67° SE 16:52:54 13° NE
Cosmos 1633 Rocket 3.3 16:42:54 10° N 16:47:11 46° ENE 16:51:26 10° SSE
NOSS 3-1 (A) 3.7 16:42:43 10° SSW 16:48:01 46° ESE 16:52:59 15° NE
Cosmos 2344 4.0 16:41:30 10° WSW 16:48:57 63° NW 16:57:38 10° NE
Cosmos 1238 Rocket 4.2 16:45:26 10° NNW 16:49:34 42° W 16:53:00 10° SSW
Genesis I 4.0 16:45:51 10° WSW 16:49:46 49° NW 16:53:15 13° NNE
Cosmos 2263 Rocket 3.2 16:46:15 10° NNW 16:50:52 26° NE 16:53:24 19° E
H-2A R/B 3.0 16:48:21 10° S 16:52:11 71° WSW 16:56:00 10° NNW
Cosmos 1891 Rocket 4.5 16:47:40 10° N 16:54:03 70° ENE 17:00:16 10° SSE
Cosmos 1464 Rocket 3.9 16:48:10 10° N 16:54:20 69° ENE 17:00:26 10° SSE
Cosmos 2369 4.0 16:49:19 10° S 16:54:41 45° ESE 16:59:19 14° NE
SeaSat 1 2.4 16:50:23 10° SE 16:55:18 78° ENE 17:00:16 10° NNW
FengYun 1-2 T 4.2 16:51:01 10° SE 16:56:24 57° ENE 17:01:47 10° N
Sich 1 3.0 16:52:07 10° N 16:56:29 90° NE 17:00:53 10° S
Lacrosse 4 Rocket 1.6 16:54:12 10° S 16:58:06 46° ESE 17:00:16 23° NE
Envisat 2.9 16:53:08 10° SSE 16:58:11 73° ENE 17:03:17 10° N
Cosmos 724 4.2 16:52:44 10° NW 16:58:37 72° NE 17:04:23 10° SE
NOAA 12 4.1 16:53:20 10° SSE 16:58:40 88° ENE 17:04:02 10° NNW
Cosmos 1666 Rocket 3.4 16:56:09 10° N 17:00:34 75° E 17:04:53 10° SSE
GEOS 3 Rocket 3.8 16:56:56 17° NE 17:00:54 57° SE 17:06:05 10° SSW
Cosmos 2082 3.8 16:55:22 10° NNW 17:01:02 82° WSW 17:06:39 10° SSE
COSMO-SKYMED 1 3.0 16:57:05 10° NNE 17:01:09 38° E 17:05:13 10° SSE
Cosmos 1151 Rocket 3.7 16:57:26 10° SSE 17:01:19 32° E 17:04:00 17° NE
Cosmos 1933 Rocket 4.3 16:57:38 10° N 17:01:26 28° ENE 17:03:56 17° ESE
ATLAS 5 CENTAUR R/B 3.5 16:56:17 10° NW 17:01:47 46° WSW 17:08:01 10° SSE
CZ-4 R/B 1.6 16:58:07 10° SE 17:02:05 47° ENE 17:06:01 10° N
Cosmos 1072 Rocket 4.4 16:58:18 10° N 17:04:28 87° E 17:10:40 10° S
Cosmos 1328 Rocket 4.0 17:00:34 10° SSE 17:04:38 38° E 17:07:58 14° NNE
Cosmos 1633 2.5 17:01:09 10° N 17:04:49 88° W 17:08:27 10° S
Cosmos 397 4.3 17:00:39 10° NW 17:04:51 86° NE 17:09:01 10° SE
CZ-4 R/B 4.5 17:00:49 10° SSE 17:04:51 54° ENE 17:08:56 10° N
ERBS 2.3 17:02:16 10° SW 17:05:32 59° SE 17:06:38 36° E
Cosmos 1697 Rocket 2.8 17:01:54 10° S 17:07:22 52° ESE 17:11:31 17° NE
Cosmos 1939 Rocket 3.8 17:12:10 29° ENE 17:12:10 29° ENE 17:15:24 10° N
Cosmos 2278 3.9 17:08:10 10° S 17:13:34 47° ESE 17:17:00 22° NE
Cosmos 1371 Rocket 3.9 17:10:23 10° NNW 17:15:34 62° ENE 17:20:41 10° SE
Cosmos 1932 4.5 17:10:03 10° NW 17:16:39 81° NE 17:23:12 10° SE
CENTAUR R/B 3.9 17:13:01 10° NW 17:19:25 31° NNE 17:23:14 22° NE
Geosat 3.9 17:18:57 18° NE 17:22:47 76° ESE 17:27:48 10° SSW
SKYMED 3 4.5 17:21:27 13° NNE 17:25:21 66° ESE 17:29:40 10° S
USA 116 4.4 17:23:10 24° NE 17:25:43 47° E 17:30:37 10° S
NOSS 2-3 (C) 3.9 17:23:05 10° SSW 17:27:23 55° SE 17:29:00 37° ENE
Cosmos 1656 3.9 17:23:51 10° SW 17:29:23 70° WNW 17:34:02 15° NNE
YAOGAN 1 2.4 17:25:05 10° SSE 17:29:24 71° ENE 17:33:44 10° N
Cosmos 158 Rocket 4.4 17:25:41 10° S 17:30:35 40° ESE 17:31:20 38° E
Cosmos 2227 4.3 17:24:53 10° NNW 17:30:35 54° NE 17:33:23 29° ESE
Cosmos 1862 3.9 17:27:08 10° NNW 17:31:03 58° W 17:34:57 10° S
Cosmos 1470 Rocket 3.5 17:27:11 10° N 17:31:41 73° E 17:36:09 10° SSE
Cosmos 2112 Rocket 4.0 17:26:42 10° S 17:31:48 61° ESE 17:34:25 29° NE
Meteor 2-11 Rocket 4.4 17:26:41 10° N 17:32:50 88° W 17:38:59 10° S
USA 238 DEB 4.4 17:26:36 10° NW 17:33:12 40° NNE 17:35:40 31° ENE
USA 238 4.4 17:26:42 10° NW 17:33:17 39° NNE 17:35:46 31° ENE
Cosmos 1844 Rocket 4.3 17:30:05 10° N 17:33:13 17° NNE 17:33:13 17° NNE
Cosmos 2346 Rocket 4.4 17:29:36 10° S 17:35:46 67° E 17:41:54 10° NNE
YAOGAN 6 2.9 17:33:41 10° S 17:37:08 63° W 17:40:37 10° NNW
Cosmos 1680 Rocket 3.4 17:33:07 10° SSW 17:38:19 79° ESE 17:41:27 25° NNE
NOSS 3-2 (A) 4.5 17:31:58 10° NW 17:38:34 40° NNE 17:41:07 32° ENE
ATLAS 3B R/B 3.8 17:33:47 10° NW 17:39:20 27° NNE 17:41:17 23° NE
Gblst 52 Del rocket 4.5 17:33:58 10° W 17:40:55 78° N 17:43:17 41° E
Ariane Rocket 3.2 17:40:35 45° E 17:41:10 47° ENE 17:46:02 10° N
NOAA 11 4.1 17:37:45 10° SSE 17:43:07 67° ENE 17:48:32 10° N
CSL-04 Debris 4.2 17:39:42 10° SSE 17:45:13 85° WSW 17:50:45 10° NNW
Meteor 1-25 Rocket 4.2 17:40:23 10° N 17:45:57 55° ENE 17:48:25 32° SE
SKYMED 2 3.7 17:45:46 15° N 17:49:24 73° WNW 17:53:44 10° SSW
Meteor 1-20 Rocket 4.2 17:44:57 10° N 17:50:46 60° ENE 17:53:30 31° SE
Cosmos 2034 Rocket 4.4 17:46:12 10° NNW 17:52:30 66° W 17:58:47 10° S
IRS-1A Rocket 4.2 17:56:24 48° ESE 17:57:39 60° ENE 18:03:20 10° N
CSL-04 Rocket 3.9 17:54:55 10° S 18:00:13 66° WSW 18:05:31 10° NNW
CZ-2D R/B 4.4 18:03:49 35° NNW 18:03:49 35° NNW 18:06:09 10° NNW
H-2A R/B 3.8 18:07:12 19° NNE 18:07:12 19° NNE 18:08:56 10° N
Cosmos 1624 Rocket 4.4 18:01:22 10° NNW 18:06:40 62° WSW 18:11:42 11° S
Cosmos 2056 Rocket 3.8 18:02:14 10° NNW 18:07:18 63° WSW 18:11:21 16° S
Meteor 1-14 Rocket 4.3 18:05:03 10° N 18:10:50 63° ENE 18:10:50 63° ENE
Cosmos 1634 Rocket 3.8 18:05:40 10° N 18:11:55 84° E 18:18:05 10° S
Cosmos 1980 Rocket 2.1 18:06:41 10° SSW 18:12:21 87° ESE 18:13:25 61° NNE
USA 215 3.1 18:14:46 58° E 18:16:09 78° NNE 18:22:41 10° WNW
Cosmos 2142 Rocket 4.4 18:13:19 10° N 18:19:46 76° E 18:21:00 59° SE
Tsikada Rocket 4.2 18:13:44 10° SSW 18:20:06 72° WNW 18:26:34 10° N
NOSS 3-2 (C) 4.3 18:16:21 10° NW 18:23:10 45° NNE 18:23:36 45° NE
BREEZE-M DEB (TANK) 3.8 18:24:36 10° W 18:28:05 36° W 18:28:05 36° W
NOSS 2-3 (E) 4.3 18:26:00 10° WSW 18:30:18 58° NW 18:30:18 58° NW
Cosmos 2279 Rocket 4.1 18:26:36 10° N 18:31:41 59° NNE 18:31:41 59° NNE
Cosmos 2263 Rocket 2.2 18:29:49 10° NNW 18:35:08 73° W 18:35:08 73° W
Lacrosse 4 Rocket 3.3 18:33:30 10° W 18:36:37 26° NW 18:36:37 26° NW
CZ-4 R/B 4.0 18:34:19 10° SW 18:37:21 19° W 18:40:21 10° NW
NOSS 3-1 (C) 4.5 18:32:54 10° W 18:38:26 40° NNW 18:40:18 33° N
NOSS 3-1 (A) 4.1 18:33:16 10° WSW 18:38:55 49° NW 18:40:26 41° N
Cosmos 1697 Rocket 4.1 18:46:27 10° WSW 18:51:34 34° NW 18:53:17 29° NNW
CENTAUR R/B 3.5 19:04:11 10° NW 19:10:25 52° N 19:10:25 52° N
USA 238 DEB 4.3 19:17:40 10° NW 19:23:07 56° NW 19:23:07 56° NW
USA 238 4.3 19:17:46 10° NW 19:23:13 56° NW 19:23:13 56° NW
NOSS 3-2 (A) 4.3 19:22:51 10° NW 19:28:31 59° NW 19:28:31 59° NW
ATLAS 3B R/B 3.9 19:24:55 10° NW 19:28:32 32° NNW 19:28:32 32° NNW
Cosmos 1980 Rocket 4.5 19:52:37 10° W 19:55:14 20° WNW 19:55:14 20° WNW
